Regional Weather Roundup
Issued by NWS Cleveland, OH

Home | Current Version | Previous Version | Graphics & Text | Print | Product List | Glossary On
Versions: 1 2 3 4 5 6 7 8 9 10 11 12 13 14 15 16 17 18 19 20 21 22 23 24 25 26 27 28 29 30 31 32 33 34 35 36 37 38 39 40 41 42 43 44 45 46 47 48 49 50
000
ASUS41 KCLE 261312
RWRCLE
OHIO REGIONAL WEATHER ROUNDUP
NATIONAL WEATHER SERVICE WILMINGTON, OH
900 AM EDT SUN MAR 26 2017

NOTE: "FAIR" INDICATES FEW OR NO CLOUDS BELOW 12,000 FEET WITH NO
SIGNIFICANT WEATHER AND/OR OBSTRUCTIONS TO VISIBILITY.

OHZ001>008-015>018-024>027-034-035-043-044-261400-
   NORTHWEST OHIO

CITY           SKY/WX    TMP DP  RH WIND       PRES   REMARKS
DEFIANCE       CLOUDY    40  37  89 E7        29.99F
FINDLAY        PTSUNNY   43  37  79 NE5       29.98S
TOLEDO EXPRESS CLOUDY    39  37  92 E8        30.01S
TOLEDO EXEC    CLOUDY    39  38  96 NE9       30.02S FOG
LIMA           RAIN      45  43  93 SE8       29.99R FOG
$$

OHZ009>014-019>023-028>033-038-089-261400-
   NORTHEAST OHIO

CITY           SKY/WX    TMP DP  RH WIND       PRES   REMARKS
CLE-HOPKINS    CLOUDY    62  49  62 S13       30.02S
CLE-LAKEFRONT  FAIR      61  49  64 SE14G22   29.98F
CUY CO. ARPT   CLOUDY    61  50  67 SE12G21   30.02R
LORAIN-ELYRIA  FAIR      50  45  83 SW3       30.00R
ASHTABULA      FAIR      53  47  79 SE14G21   30.07R
AKRON-CANTON   CLOUDY    60  50  69 SE12      30.04R
WOOSTER        FAIR      59  49  69 SE9       30.02R
MANSFIELD      FAIR      60  49  66 SE10      30.00R
YOUNGSTOWN     CLOUDY    55  47  74 SE13      30.07F
$$

OHZ042-051>053-060>062-070>072-077>081-261400-
  SOUTHWEST OHIO

CITY           SKY/WX    TMP DP  RH WIND       PRES   REMARKS
CINC-COVINGTON CLOUDY    56  55  97 S8        29.99R
CINC-LUNKEN    PTSUNNY   58  56  93 S8        30.01R
HAMILTON       CLOUDY    59  56  89 VRB6      30.00R
DAYTON         LGT RAIN  57  55  93 S8        29.99R
WRIGHT-PAT AFB CLOUDY    58  58 100 SE6       29.99R
DAYTON GENERAL CLOUDY    58  55  90 S9        29.99R
WILMINGTON     LGT RAIN  56  55  97 S6        30.01R
$$

OHZ036-037-039>041-045>050-054>059-063>069-073>076-082>088-261400-
  CENTRAL AND SOUTHEAST OHIO

CITY           SKY/WX    TMP DP  RH WIND       PRES   REMARKS
COLUMBUS       LGT RAIN  60  50  69 S9        30.01R
OSU AIRPORT    LGT RAIN  57  51  80 W5        29.99R
BOLTON FIELD   LGT RAIN  55  50  82 SW7       30.02R
RICKENBACK AFB LGT RAIN  57  50  76 SW8       30.01R
NEWARK         PTSUNNY   60  49  66 S7        30.01R
MARION         CLOUDY    47  43  86 CALM      30.00R
LANCASTER      PTSUNNY   63  48  58 S9        30.02R
ZANESVILLE     CLOUDY    62  47  57 S14       30.03R
NEW PHILLY     FAIR      62  49  62 SE9       30.04R
$$




USA.gov is the U.S. government's official web portal to all federal, state and local government web resources and services.